Regional Weather Roundup
Issued by NWS

Home | Current Version | Previous Version | Graphics & Text | Print | Product List | Glossary On
Versions: 1 2 3 4 5 6 7 8 9 10 11 12 13 14 15 16 17 18 19 20 21 22 23 24 25 26 27 28 29 30 31 32 33 34 35 36 37 38 39 40 41 42 43 44 45 46 47 48 49 50
000
ASUS43 KBIS 210510
RWRND

NORTH DAKOTA REGIONAL WEATHER ROUNDUP
NATIONAL WEATHER SERVICE BISMARCK ND
1200 AM CDT SUN SEP 21 2014

NOTE: "FAIR" INDICATES FEW OR NO CLOUDS BELOW 12,000 FEET WITH NO
SIGNIFICANT WEATHER AND/OR OBSTRUCTIONS TO VISIBILITY.


NDZ001>003-009>011-017-210600-
NORTHWEST NORTH DAKOTA

CITY           SKY/WX    TMP DP  RH WIND       PRES   REMARKS
WILLISTON      CLEAR     51  36  56 NW9       30.19R
MINOT          CLEAR     56  40  55 W14       30.10R
MINOT AFB      CLEAR     52  44  73 W10       30.09R
$$

NDZ018>021-031>035-040>046-210600-
SOUTHWEST NORTH DAKOTA

CITY           SKY/WX    TMP DP  RH WIND       PRES   REMARKS
BISMARCK       CLEAR     58  40  51 NW12      30.14R
DICKINSON      CLEAR     48  36  63 NW8       30.19R
GARRISON         N/A     53  41  63 NW12      30.13R
HETTINGER ARPT CLEAR     48  35  60 W3        30.23R
$$

NDZ004>008-012>016-024-026-027-054-210600-
NORTHEAST NORTH DAKOTA

CITY           SKY/WX    TMP DP  RH WIND       PRES   REMARKS
GRAND FORKS    MOCLDY    54  50  86 NW8       29.97R
GRND FRKS AFB  MOCLDY    54  52  94 NW9       29.98R
DEVILS LAKE    CLEAR     55  45  67 NW15      30.02R
$$

NDZ022-023-025-028>030-036>039-047>053-210600-
SOUTHEAST NORTH DAKOTA

CITY           SKY/WX    TMP DP  RH WIND       PRES   REMARKS
FARGO          PTCLDY    54  49  83 NW8       29.96R
JAMESTOWN      CLOUDY    58  46  64 NW12      30.04R
$$




USA.gov is the U.S. government's official web portal to all federal, state and local government web resources and services.